Location: Newark
(46.7000°N, 60.6000°W)
Time: 22:48:08
(UTC+00:00)

Vanguard 3 - Pass Details

Date: 04 November 2020
Orbit: 508 x 3262 km, 33.3° (Epoch: 28 November)

Event Time Altitude Azimuth Distance (km) Brightness Sun altitude
Rises 08:58:27 0° 245° (WSW) 5,667 - -19.4°
Reaches altitude 10° 09:01:49 10° 240° (WSW) 4,976 - -18.8°
Exits shadow 09:02:38 13° 239° (WSW) 4,820 10.6 -18.6°
Maximum altitude 09:16:42 52° 171° (S) 3,583 10.4 -16.2°
Drops below altitude 10° 09:35:25 10° 104° (ESE) 6,131 13.1 -13.1°
Sets 09:40:08 0° 100° (E) 7,015 14.1 -12.3°
